Location: Little Chesterford
(52.0500°N, 0.1833°E)
Time: 03:35:46
(UTC+00:00)

SL-14 R/B - Pass Details

Date: 26 September 2023
Orbit: 511 x 544 km, 82.4° (Epoch: 29 November)

Event Time Altitude Azimuth Distance (km) Brightness Sun altitude
Rises 18:24:47 0° 354° (N) 2,714 7.0 -6.3°
Reaches altitude 10° 18:27:05 10° 3° (N) 1,812 6.0 -6.7°
Maximum altitude 18:30:48 37° 72° (ENE) 842 3.8 -7.2°
Drops below altitude 10° 18:34:28 10° 141° (SE) 1,777 5.5 -7.8°
Sets 18:36:42 0° 150° (SSE) 2,655 6.4 -8.1°
